This demonstration page uses our WeatherBlox Daily Observations layout. Learn more.

39.29038, -76.61219

Hourly Observations for July 4, 2015

Temp ( °F °C ) Dew Point ( °F °C ) Humidity (%) Winds ( mph kmh ) Pressure ( in mb ) Visibility ( mi km ) Precip ( " mm )
12:54 am 00:54 Mostly Clear 73 23 63 17 69 69 undefined N/A 29.94 1014 N/A 0 0
1:54 am 01:54 Cloudy 73 23 64 18 74 74 undefined N/A 29.91 1013 N/A 0 0
2:54 am 02:54 Mostly Clear 73 23 66 19 78 78 undefined N/A 29.91 1013 N/A 0 0
3:54 am 03:54 Cloudy 73 23 66 19 78 78 undefined N/A 29.91 1013 N/A 0 0
4:54 am 04:54 undefined 72 22 66 19 83 83 undefined N/A 29.88 1012 N/A 0 0
5:54 am 05:54 Sunny 72 22 66 19 83 83 undefined N/A 29.91 1013 N/A 0 0
6:54 am 06:54 Mostly Cloudy 72 22 66 19 83 83 undefined N/A 29.91 1013 N/A 0 0
7:54 am 07:54 Cloudy 73 23 66 19 78 78 undefined N/A 29.91 1013 N/A 0 0
8:54 am 08:54 Mostly Sunny 72 22 68 20 88 88 undefined N/A 29.88 1012 N/A 0 0
9:54 am 09:54 undefined 73 23 70 21 89 89 undefined N/A 29.91 1013 N/A 0.01 0.254
10:54 am 10:54 undefined 72 22 70 21 94 94 undefined N/A 29.91 1013 N/A 0.08 2.032
11:54 am 11:54 undefined 70 21 66 19 88 88 undefined N/A 29.94 1014 N/A 0.04 1.016
12:54 pm 12:54 Partly Cloudy 73 23 68 20 83 83 undefined N/A 29.94 1014 N/A 0 0
1:54 pm 13:54 undefined 73 23 70 21 89 89 undefined N/A 29.94 1014 N/A 0 0
2:54 pm 14:54 Mostly Sunny 73 23 68 20 83 83 undefined N/A 29.91 1013 N/A 0 0
3:54 pm 15:54 undefined 73 23 66 19 78 78 undefined N/A 29.91 1013 N/A 0 0
4:54 pm 16:54 Cloudy 73 23 66 19 78 78 undefined N/A 29.91 1013 N/A 0 0
5:54 pm 17:54 undefined 73 23 66 19 78 78 undefined N/A 29.94 1014 N/A 0 0
6:54 pm 18:54 undefined 75 24 66 19 74 74 undefined N/A 29.94 1014 N/A 0 0
7:54 pm 19:54 undefined 75 24 66 19 74 74 undefined N/A 29.97 1015 N/A 0 0
8:54 pm 20:54 Mostly Clear 73 23 66 19 78 78 undefined N/A 29.97 1015 N/A 0 0
9:54 pm 21:54 Partly Cloudy 73 23 66 19 78 78 undefined N/A 30 1016 N/A 0 0
10:54 pm 22:54 undefined 73 23 66 19 78 78 undefined N/A 30.03 1017 N/A 0 0
11:54 pm 23:54 Clear 72 22 66 19 83 83 undefined N/A 30.03 1017 N/A 0 0

Powered by AerisWeather